Regional Weather Roundup
Issued by NWS

Home | Current Version | Previous Version | Graphics & Text | Print | Product List | Glossary On
Versions: 1 2 3 4 5 6 7 8 9 10 11 12 13 14 15 16 17 18 19 20 21 22 23 24 25 26 27 28 29 30 31 32 33 34 35 36 37 38 39 40 41 42 43 44 45 46 47 48 49 50
000
ASUS43 KOAX 282110
RWRNE

WEATHER ROUNDUP FOR NEBRASKA
NATIONAL WEATHER SERVICE OMAHA NE
400 PM CDT THU MAY 28 2015

NOTES: SATELLITE DATA IS BEING USED TO AUGMENT CLOUD COVER ABOVE
       12000 FEET.
       "FAIR" INDICATES FEW OR NO CLOUDS BELOW 12,000 FEET WITH NO
       SIGNIFICANT WEATHER AND/OR OBSTRUCTIONS TO VISIBILITY.

  * THESE STATIONS DO NOT REPORT WEATHER SUCH AS RAIN...SNOW OR FOG.

NEZ001>004-019>022-054>056-282200-
NEBRASKA PANHANDLE

CITY           SKY/WX    TMP DP  RH WIND       PRES   REMARKS
SCOTTSBLUFF    PTSUNNY   72  47  40 W10       29.94F
ALLIANCE       MOSUNNY   71  50  47 W13       29.92F
CHADRON        PTSUNNY   71  56  58 NW8       29.92F
KIMBALL          N/A    N/A N/A N/A MISG        N/A
SIDNEY         TSTM      58  49  72 E15       30.01R
$$

NEZ057>060-069>072-079>082-282200-
SOUTHWEST NEBRASKA

CITY           SKY/WX    TMP DP  RH WIND       PRES   REMARKS
NORTH PLATTE   CLOUDY    73  59  61 S9        29.91F
IMPERIAL       MOSUNNY   74  61  63 SE9       29.91F
LEXINGTON      MOSUNNY   74  62  66 S13       29.92F
MCCOOK         MOSUNNY   78  60  53 S17G24    29.91F
OGALLALA       MOSUNNY   74  58  56 S7        29.91F
$$

NEZ005>010-023>029-035>040-094-282200-
NORTH CENTRAL NEBRASKA

CITY           SKY/WX    TMP DP  RH WIND       PRES   REMARKS
VALENTINE      TSTM      67  61  81 S16       29.91F
AINSWORTH      CLOUDY    77  59  53 S16       29.91S
BROKEN BOW     CLOUDY    73  60  63 S14G25    29.93F
O`NEILL        CLOUDY    78  58  49 S12G21    29.90F
ORD            CLOUDY    76  58  53 S14       29.91F
THEDFORD       PTSUNNY   76  60  57 SE8G22    29.93R
$$

NEZ041-046>049-061>064-073>077-083>087-282200-
SOUTH CENTRAL NEBRASKA

CITY           SKY/WX    TMP DP  RH WIND       PRES   REMARKS
GRAND ISLAND   CLOUDY    74  59  59 S14       29.95F
AURORA         CLOUDY    78  60  53 S10       29.95F
HASTINGS       CLOUDY    76  61  59 S13G20    29.95F
HEBRON         CLOUDY    79  60  52 S12       29.95F
HOLDREGE       MOSUNNY   76  58  54 S12G18    29.93F
KEARNEY *      CLOUDY    77  61  57 S14       29.93F
YORK           PTSUNNY   79  59  50 S13       29.94F
$$

NEZ011>018-030>034-042>045-282200-
NORTHEAST NEBRASKA

CITY           SKY/WX    TMP DP  RH WIND       PRES   REMARKS
NORFOLK        PTSUNNY   74  64  71 SE17G30   29.94F
ALBION         CLOUDY    77  57  50 S13       29.93F
BLAIR          LGT RAIN  68  64  85 SE7       30.00F
COLUMBUS *     PTSUNNY   73  63  68 SE12G17   29.96F
FREMONT        CLOUDY    70  65  85 SE13      29.99F
TEKAMAH        LGT RAIN  69  65  86 SE9       29.99F
WAYNE          CLOUDY    70  61  74 SE22G28   29.97F
$$

NEZ050>053-065>068-078-088>093-282200-
SOUTHEAST NEBRASKA

CITY           SKY/WX    TMP DP  RH WIND       PRES   REMARKS
LINCOLN        CLOUDY    74  64  71 SE15      29.97F
OMAHA EPPLEY   LGT RAIN  70  64  81 S16       30.00F
BEATRICE       CLOUDY    73  66  78 SE12G18   29.97F
FALLS CITY     CLOUDY    69  65  86 S8        30.00F
NEBRASKA CITY  CLOUDY    71  61  71 S14G21    30.01F
PLATTSMOUTH    CLOUDY    68  63  82 SE10      30.01F
$$

NEZ044-045-051>053-067-282200-
OMAHA AREA

CITY           SKY/WX    TMP DP  RH WIND       PRES   REMARKS
OMAHA EPPLEY   LGT RAIN  70  64  81 S16       30.00F
BLAIR          LGT RAIN  68  64  85 SE7       30.00F
FREMONT        CLOUDY    70  65  85 SE13      29.99F
MILLARD        LGT RAIN  70  65  83 SE12      30.00F
OFFUTT AFB     LGT RAIN  68  64  88 SE13      29.99F
PLATTSMOUTH    CLOUDY    68  63  82 SE10      30.01F
WAHOO          MOCLDY    72  65  79 SE16      29.98F
$$



USA.gov is the U.S. government's official web portal to all federal, state and local government web resources and services.